Regional Weather Roundup
Issued by NWS Bismarck, ND

Home | Current Version | Previous Version | Text Only | Print | Product List | Glossary On
Versions: 1 2 3 4 5 6 7 8 9 10 11 12 13 14 15 16 17 18 19 20 21 22 23 24 25 26 27 28 29 30 31 32 33 34 35 36 37 38 39 40 41 42 43 44 45 46 47 48 49 50
000
ASUS43 KBIS 231310
RWRBIS

NWR BROADCAST TEXT
NATIONAL WEATHER SERVICE BISMARCK ND
800 AM CDT TUE JUL 23 2019

NOTE: "FAIR" INDICATES FEW OR NO CLOUDS BELOW 12,000 FEET WITH NO
SIGNIFICANT WEATHER AND/OR OBSTRUCTIONS TO VISIBILITY.


CITY           SKY/WX    TMP DP  RH WIND       PRES   REMARKS
WILLISTON      MOSUNNY   66  57  72 NE5       30.22S
MINOT          SUNNY     64  58  80 SE3       30.23S
MINOT AFB      SUNNY     62  57  84 CALM      30.23R
BISMARCK       SUNNY     61  57  87 CALM      30.28R
DICKINSON      MOSUNNY   62  56  80 SE9       30.24R
GARRISON         N/A     61  59  93 CALM      30.26R
HETTINGER ARPT MOSUNNY   63  55  75 SE14      30.25S
JAMESTOWN      SUNNY     65  59  81 SW7       30.26S
CARRINGTON     FAIR      64  61  88 CALM      30.29R
HAZEN          FAIR      57  57 100 CALM      30.28S
MANDAN         FAIR      61  61 100 S6        30.29R
OAKES          FAIR      63  63 100 CALM      30.28R
RUGBY          FAIR      63  63 100 CALM      30.25S
STANLEY        FAIR      59  59 100 CALM      30.26S
TIOGA          FAIR      55  55 100 CALM      30.27R
WATFORD CITY     N/A    N/A N/A N/A MISG        N/A
$$

CITY           SKY/WX    TMP DP  RH WIND       PRES   REMARKS
GRAND FORKS    SUNNY     65  57  75 CALM      30.23S
GRAND FORKS AF SUNNY     64  59  82 NW2       30.27S
DEVILS LAKE    SUNNY     66  60  81 CALM      30.26S
FARGO          MOSUNNY   65  60  84 W5        30.24S
CANDO          FAIR      61  61 100 CALM      30.27S
CAVALIER       FAIR      64  57  77 W5        30.23S
GRAFTON        FAIR      63  57  82 CALM      30.25S
GWINNER          N/A     64  63  94 SW7       30.27S
LANGDON        FAIR     N/A N/A N/A CALM      30.26S
ROLLA          FAIR      63  63 100 CALM      30.27R
WALHALLA       FAIR      66  64  94 CALM      30.24R
$$

CITY           SKY/WX    TMP DP  RH WIND       PRES   REMARKS
ABERDEEN       SUNNY     65  59  81 CALM      30.29R
MOBRIDGE       SUNNY     66  60  81 S8        30.26S
BUFFALO          N/A     64  54  69 SE8       30.20R
RAPID CITY     SUNNY     63  57  81 S14       30.25S
GLASGOW        MOSUNNY   66  54  65 E15       30.13S
SIDNEY         MOSUNNY   64  56  75 E5        30.19F
WOLF POINT     PTSUNNY   64  55  72 NE9       30.16F
GLENDIVE       MOSUNNY   64  56  75 E6        30.18S
MILES CITY     PTSUNNY   67  57  70 E5        30.15R
BAKER          PTSUNNY   60  55  83 SE13      30.21S
$$

CITY           SKY/WX    TMP DP  RH WIND       PRES   REMARKS
BILLINGS       MOSUNNY   71  57  61 SW9       30.15S
GREAT FALLS    PTCLDY    65  57  75 S6        30.10F
REGINA         CLOUDY    61  54  77 SE13      30.19F
ESTEVAN        SUNNY     63  55  77 E5        30.23S
$$




USA.gov is the U.S. government's official web portal to all federal, state and local government web resources and services.